Leesburg, FL

7:55 PM EST on January 21, 2017 (GMT -0500)
Leesburg

Weather History for KLEE - November, 2010

Change the Weather History Date:

Monday, November 1, 2010

  Actual Average Record
Temperature  
Mean Temperature 75 °F -  
Max Temperature 84 °F 79 °F 89 °F (1968)
Min Temperature 66 °F 59 °F 34 °F (1993)
Cooling Degree Days 10    
Growing Degree Days 25 (Base 50)    
Moisture  
Dew Point 62 °F    
Average Humidity 67    
Maximum Humidity 93    
Minimum Humidity 40    
Precipitation  
Precipitation 0.00 in - - ()
Sea Level Pressure  
Sea Level Pressure 30.14 in    
Wind  
Wind Speed 4 mph (ENE)    
Max Wind Speed 9 mph    
Max Gust Speed -    
Visibility 10 miles    
Events      
Averages and records for this station are not official NWS values.
T = Trace of Precipitation, MM = Missing Value Source: NWS Daily Summary

Daily Weather History Graph

Daily Weather History Graph

Search for Another Location

Airport or City:

Trip Planner

Search our weather history database for the weather conditions in past years. The results will help you decide how hot, cold, wet, or windy it might be!

Date:

Astronomy

Nov. 01, 2010 Rise Set
Actual Time 7:39 AM EDT 6:41 PM EDT
Civil Twilight 7:15 AM EDT 7:06 PM EDT
Nautical Twilight 6:47 AM EDT 7:34 PM EDT
Astronomical Twilight 6:19 AM EDT 8:01 PM EDT
Moon 2:39 AM EDT (11/1) 3:27 PM EDT (11/1)
Length of Visible Light 11h 51m
Length of Day
11h 02m
Waning Crescent, 26% of the Moon is Illuminated
Nov 1
Waning Crescent
Nov 6
New
Nov 13
First Quarter
Nov 21
Full
Nov 28
Last Quarter

Hourly Weather History & Observations

Time (EDT) Temp. Heat Index Dew Point Humidity Pressure Visibility Wind Dir Wind Speed Gust Speed Precip Events Conditions
12:53 AM 71.1 °F - 62.1 °F 73% 30.13 in 10.0 mi South 6.9 mph - N/A   Clear
1:53 AM 70.0 °F - 62.1 °F 76% 30.12 in 10.0 mi South 8.1 mph - N/A   Clear
2:53 AM 69.1 °F - 63.0 °F 81% 30.12 in 10.0 mi SW 4.6 mph - N/A   Clear
3:53 AM 66.9 °F - 63.0 °F 87% 30.12 in 10.0 mi Calm Calm - N/A   Clear
4:53 AM 66.0 °F - 62.1 °F 87% 30.13 in 10.0 mi Calm Calm - N/A   Clear
5:53 AM 66.0 °F - 63.0 °F 90% 30.14 in 10.0 mi Calm Calm - N/A   Mostly Cloudy
6:53 AM 66.0 °F - 64.0 °F 93% 30.15 in 9.0 mi North 3.5 mph - N/A   Mostly Cloudy
7:53 AM 66.0 °F - 64.0 °F 93% 30.17 in 6.0 mi NNE 4.6 mph - N/A   Overcast
8:53 AM 69.1 °F - 64.0 °F 84% 30.18 in 10.0 mi Calm Calm - N/A   Scattered Clouds
9:53 AM 73.9 °F - 60.1 °F 62% 30.19 in 10.0 mi North 5.8 mph - N/A   Clear
10:53 AM 78.1 °F - 60.1 °F 54% 30.19 in 10.0 mi NNE 6.9 mph - N/A   Clear
11:53 AM 79.0 °F - 59.0 °F 50% 30.18 in 10.0 mi Calm Calm - N/A   Clear
12:53 PM 81.0 °F 81.7 °F 61.0 °F 50% 30.17 in 10.0 mi South 8.1 mph - N/A   Clear
1:53 PM 81.0 °F 81.3 °F 59.0 °F 47% 30.14 in 10.0 mi Calm Calm - N/A   Partly Cloudy
2:53 PM 82.9 °F 82.6 °F 57.9 °F 42% 30.11 in 10.0 mi Calm Calm - N/A   Mostly Cloudy
3:53 PM 84.0 °F 83.3 °F 57.0 °F 40% 30.10 in 10.0 mi Variable 3.5 mph - N/A   Clear
4:53 PM 84.0 °F 83.3 °F 57.0 °F 40% 30.09 in 10.0 mi Calm Calm - N/A   Clear
5:53 PM 81.0 °F 81.3 °F 59.0 °F 47% 30.09 in 10.0 mi Calm Calm - N/A   Clear
6:53 PM 75.9 °F - 60.1 °F 58% 30.10 in 10.0 mi ENE 3.5 mph - N/A   Clear
7:53 PM 75.0 °F - 61.0 °F 62% 30.12 in 10.0 mi NE 9.2 mph - N/A   Clear
8:53 PM 73.9 °F - 64.9 °F 73% 30.13 in 10.0 mi ENE 6.9 mph - N/A   Clear
9:53 PM 73.0 °F - 64.9 °F 76% 30.14 in 10.0 mi ENE 6.9 mph - N/A   Clear
10:53 PM 73.0 °F - 64.9 °F 76% 30.15 in 10.0 mi ENE 5.8 mph - N/A   Overcast
11:53 PM 73.0 °F - 64.0 °F 73% 30.15 in 10.0 mi ENE 4.6 mph - N/A   Overcast